Other Surface Observations
Issued by NWS Tucson, AZ

Home | Current Version | Previous Version | Text Only | Print | Product List | Glossary On
Versions: 1 2 3 4 5 6 7 8 9 10 11 12 13 14 15 16 17 18 19 20 21 22 23 24 25 26 27 28 29 30 31 32 33 34 35 36 37 38 39 40 41 42 43 44 45 46 47 48 49 50
198
SXUS55 KTWC 130615
OSOTWC

WEATHER ROUNDUP FOR SOUTHEAST ARIZONA
NATIONAL WEATHER SERVICE TUCSON AZ
1115 PM MST TUE DEC 12 2017

AZZ504>506-514-130715-
LOCATION       SKY/WX    TMP DP  RH WIND       PRES   REMARKS
TUCSON         CLEAR     60  13  15 SE10      30.12S
DAVIS-MONTHAN  CLEAR     59  11  15 SE14      30.11R
CHILDRENS PARK N/A      N/A N/A  11 SE10              PIMA CO DEQ
ALVERNON/22ND  N/A       62 N/A N/A E6                PIMA CO DEQ
CHERRY/GLENN   N/A       65 N/A N/A E9                PIMA CO DEQ
TANGERINE      N/A       49 N/A N/A NE5               PIMA CO DEQ
CONTL RANCH    N/A       48  17  29 SE2               PIMA CO DEQ
GRANT/1ST      N/A       63  10  12 E8                PIMA CO DEQ
CRAYCROFT/22ND N/A       62  11  13 E6                PIMA CO DEQ
GOLFLINKS/KOLB N/A       62  11  13 NE3               PIMA CO DEQ
AJO/12TH       N/A       60  11  14 E4                PIMA CO DEQ
FAIRGROUNDS    N/A       58 N/A N/A SE7               PIMA CO DEQ
SAGUARO        N/A       61   8  12 SE2G10            *SABINO CYN
SAN CARLOS     N/A       51   5  15 CALM              *SAN CARLOS
GREEN VALLEY   N/A       55  14  19 S2                PIMA CO DEQ
HORSE CAMP CYN N/A       52   8  17 E15G22            *ARAVAIPA CYN
RINCON MTNS    N/A       43   3  19 E10G18            *NR MANNING CAMP
$$

AZZ509>511-130715-
LOCATION       SKY/WX    TMP DP  RH WIND       PRES   REMARKS
SAFFORD        CLEAR     47   8  20 E7        30.21F
STRAY HORSE    N/A       35  -1  20 CALM              *
TRAIL CABIN    N/A       39   2  21 SE4               *N OF GRANVILLE
BLACK HILLS    NOT AVBL
DRY LAKE       N/A       38   0  20 SE9G13            *NATANES MTNS
NOON CREEK     N/A       47   9  21 SW3G12            *PINALENO MTNS
COLUMBINE      N/A       38 -26   5 E2                *PINALENO MTNS
GUTHRIE        N/A       40   6  24 E9G17             *SW OF GUTHRIE
$$

AZZ502-503-513-130715-
LOCATION       SKY/WX    TMP DP  RH WIND       PRES   REMARKS
NOGALES        CLEAR     50  17  27 NE6       30.14S
SELLS          N/A       60   7  12 E4                *
SASABE         N/A       52  11  19 NW3               *ALTAR VLY
HOPKINS        N/A       49  19  30 E11G18            *SANTA RITA MTNS
CARR CYN       N/A       49  19  31 E5G14             *W OF HEREFORD
$$

AZZ507-508-512-130715-
LOCATION       SKY/WX    TMP DP  RH WIND       PRES   REMARKS
SIERRA VISTA   CLEAR     47  19  32 SE10      30.21S
DOUGLAS        CLEAR     47  19  33 E5        30.20F
EMPIRE MTNS    NOT AVBL
MULESHOE RANCH N/A       53  13  20 E12G28            *PRESERVE
HEADQUARTERS   N/A       47  17  30 NE10G21           *CHIRICAHUA MTNS
$$

.............................NOTES.............................
THIS IS AN AUTOMATED COLLECTIVE WITH MINIMAL QUALITY CONTROL.
PIMA CO DEQ SITES HAVE NONSTANDARD WIND SENSOR HEIGHTS.
PIMA CO DEQ SITES DO NOT REPORT WIND GUSTS.
* INDICATES WIND SENSORS LOCATED AT 20 FEET INSTEAD OF 33 FEET.
..............................KEY..............................
SKY/WX - SKY CONDITION/WEATHER
TMP    - TEMPERATURE IN FAHRENHEIT
DP     - DEWPOINT IN FAHRENHEIT
RH     - RELATIVE HUMIDITY IN PERCENT
WIND   - DIRECTION AND SPEED IN MILES PER HOUR (MPH)
VRB    - VARIABLE WIND DIRECTION
PRES   - MEAN SEA LEVEL PRESSURE IN INCHES OF MERCURY
         F - FALLING PRESSURE   R - RISING PRESSURE
         S - STEADY PRESSURE
VSB    - VISIBILITY IN MILES
HX     - HEAT INDEX IN FAHRENHEIT
WCI    - WIND CHILL INDEX IN FAHRENHEIT
N/A    - NOT AVAILABLE
AFB    - AIR FORCE BASE
         DAVIS-MONTHAN IS DAVIS-MONTHAN AIR FORCE BASE
CYN    - CANYON
MTNS   - MOUNTAINS
NCA    - NATIONAL CONSERVATION AREA
NR     - NEAR
VLY    - VALLEY
CONTL  - CONTINENTAL
PIMA CO DEQ - PIMA COUNTY DEPT OF ENVIRONMENTAL QUALITY



USA.gov is the U.S. government's official web portal to all federal, state and local government web resources and services.